EW2776 Weather Reports


time (UTC)temp
C
wind
direction
speed
KPH
gust
KPH
rain 1hr
cm
rain 24hr
cm
rain mn
cm
humidity
%
barometer
mb
20260906063100 10 311 1.6 9.7 0.00 0.00 0.00 88 1005.0
20260906061600 10 312 4.8 11.3 0.00 0.00 0.00 90 1004.8
20260906060058 9 315 1.6 8.0 0.00 0.00 0.00 92 1004.7
20260906060001 9 315 1.6 8.0 0.00 0.00 0.00 92 1004.7
20260906054609 8 323 1.6 6.4 0.00 0.00 0.00 93 1004.7
20260906053100 8 336 1.6 4.8 0.00 0.00 0.00 94 1004.6
20260906051600 7 311 1.6 4.8 0.00 0.00 0.00 94 1004.4
20260906050122 7 331 3.2 4.8 0.00 0.00 0.00 94 1004.2
20260906044559 7 321 1.6 4.8 0.00 0.00 0.00 94 1004.2
20260906043059 6 321 1.6 8.0 0.00 0.00 0.00 94 1004.0
20260906041559 6 322 3.2 8.0 0.00 0.00 0.00 94 1003.8
20260906040120 6 313 1.6 4.8 0.00 0.00 0.00 94 1003.7
20260906034559 6 313 0.0 4.8 0.00 0.00 0.00 94 1003.5
20260906033108 6 313 0.0 4.8 0.00 0.00 0.00 93 1003.4
20260906031601 6 321 1.6 4.8 0.00 0.00 0.00 93 1003.4
20260906030059 6 318 1.6 6.4 0.00 0.00 0.00 94 1003.2
20260906030001 6 318 1.6 6.4 0.00 0.00 0.00 94 1003.2
20260906024615 6 317 1.6 4.8 0.00 0.00 0.00 93 1003.0
20260906023100 7 317 1.6 4.8 0.00 0.00 0.00 93 1002.9
20260906021600 7 329 3.2 6.4 0.00 0.00 0.00 94 1002.7
20260906020101 7 329 3.2 6.4 0.00 0.00 0.00 94 1002.6
20260906014608 6 344 0.0 6.4 0.00 0.00 0.00 93 1002.3
20260906013059 7 344 1.6 6.4 0.00 0.00 0.00 94 1002.2
20260906011559 7 324 1.6 4.8 0.00 0.00 0.00 93 1002.0
20260906010059 7 324 1.6 4.8 0.00 0.00 0.00 93 1001.8
20260906010001 7 324 1.6 4.8 0.00 0.00 0.00 93 1001.8
20260906004600 7 324 0.0 4.8 0.00 0.00 0.00 93 1001.8
20260906003100 7 324 1.6 6.4 0.00 0.00 0.00 93 1001.6
20260906001600 7 340 3.2 8.0 0.00 0.00 0.00 93 1001.4
20260906000101 7 342 3.2 8.0 0.00 0.00 0.00 92 1001.2
20260905234612 8 333 3.2 12.9 0.00 0.00 0.00 92 1001.0
20260905233059 8 336 3.2 8.0 0.00 0.00 0.00 91 1000.8
20260905231559 8 317 3.2 12.9 0.00 0.00 0.00 89 1000.6
20260905230128 8 342 4.8 14.5 0.00 0.00 0.00 89 1000.5
20260905224558 9 324 4.8 9.7 0.00 0.00 0.00 89 1000.3
20260905223059 9 329 4.8 9.7 0.00 0.00 0.00 89 1000.2
20260905221603 9 339 3.2 8.0 0.00 0.00 0.00 89 1000.0
20260905220059 10 323 3.2 6.4 0.00 0.00 0.00 88 999.9
20260905220002 10 322 3.2 6.4 0.00 0.00 0.00 88 999.8
20260905214601 10 339 3.2 8.0 0.00 0.00 0.00 87 999.6
20260905213100 10 327 4.8 9.7 0.00 0.00 0.00 87 999.5
20260905211604 11 344 3.2 6.4 0.00 0.00 0.00 86 999.3
20260905210005 11 329 4.8 9.7 0.00 0.00 0.00 87 999.1
20260905204559 11 332 3.2 8.0 0.00 0.00 0.00 87 998.7
20260905203103 11 322 4.8 9.7 0.00 0.00 0.00 88 998.5
20260905201600 11 324 4.8 9.7 0.00 0.00 0.00 89 998.3
20260905200107 11 346 3.2 9.7 0.00 0.00 0.00 90 998.0
20260905194600 11 333 3.2 9.7 0.00 0.00 0.00 91 997.8
20260905193112 11 343 0.0 1.6 0.00 0.00 0.00 93 997.6
20260905191601 11 346 0.0 1.6 0.00 0.00 0.00 93 997.7
20260905190100 10 348 0.0 1.6 0.00 0.00 0.00 94 997.6
20260905190001 10 348 0.0 1.6 0.00 0.00 0.00 94 997.5
20260905184604 10 348 0.0 0.0 0.00 0.00 0.00 93 997.4
20260905183101 10 348 0.0 0.0 0.00 0.00 0.00 91 997.3
20260905181600 11 348 0.0 0.0 0.00 0.00 0.00 90 997.2
20260905180100 11 348 0.0 0.0 0.00 0.00 0.00 88 997.1
20260905180001 12 348 0.0 0.0 0.00 0.00 0.00 88 997.1
20260905174611 12 348 0.0 0.0 0.00 0.00 0.00 87 996.9
20260905173100 12 348 0.0 0.0 0.00 0.00 0.00 86 996.8
20260905171605 13 348 0.0 0.0 0.00 0.00 0.00 84 996.5
20260905170100 14 348 0.0 0.0 0.00 0.00 0.00 81 996.4
20260905170001 14 348 0.0 0.0 0.00 0.00 0.00 81 996.4
20260905164600 15 348 1.6 4.8 0.00 0.00 0.00 79 996.2
20260905163102 15 333 3.2 8.0 0.00 0.00 0.00 76 996.1
20260905161559 15 330 1.6 8.0 0.00 0.00 0.00 74 995.9
20260905160004 16 325 4.8 12.9 0.00 0.00 0.00 72 995.6
20260905154608 16 324 3.2 9.7 0.00 0.00 0.00 72 995.5
20260905153100 16 302 0.0 1.6 0.00 0.00 0.00 73 995.4
20260905151600 16 342 0.0 9.7 0.00 0.00 0.00 73 995.3
20260905150113 16 355 4.8 11.3 0.00 0.00 0.00 72 995.2
20260905150002 16 324 1.6 9.7 0.00 0.00 0.00 73 995.2
20260905144559 16 339 3.2 12.9 0.00 0.00 0.00 72 995.1
20260905143059 16 329 6.4 14.5 0.00 0.00 0.00 70 995.0
20260905141600 16 333 6.4 16.1 0.00 0.00 0.00 70 994.9
20260905140001 16 310 6.4 17.7 0.00 0.00 0.00 68 994.7
20260905134602 17 333 6.4 20.9 0.00 0.00 0.00 64 994.5
20260905133100 18 280 6.4 16.1 0.00 0.00 0.00 53 994.2
20260905131600 18 329 4.8 12.9 0.00 0.00 0.00 53 994.2
20260905130100 18 295 3.2 9.7 0.00 0.00 0.00 55 994.0
20260905130002 18 13 3.2 9.7 0.00 0.00 0.00 56 994.1
20260905124602 17 28 0.0 6.4 0.00 0.00 0.00 60 994.0
20260905123101 17 360 0.0 4.8 0.00 0.00 0.00 59 994.0
20260905121603 17 322 3.2 16.1 0.00 0.00 0.00 60 994.0
20260905120001 17 324 3.2 8.0 0.00 0.00 0.00 63 993.9
20260905114600 16 317 1.6 9.7 0.00 0.00 0.00 63 993.8
20260905113111 17 323 6.4 19.3 0.00 0.00 0.00 61 993.8
20260905111600 17 317 3.2 14.5 0.00 0.00 0.00 58 993.6
20260905110059 17 302 4.8 12.9 0.00 0.00 0.00 59 993.5
20260905110001 17 304 3.2 12.9 0.00 0.00 0.00 61 993.5
20260905104559 16 18 0.0 4.8 0.00 0.13 0.00 65 993.4
20260905103103 16 18 0.0 6.4 0.00 0.13 0.00 67 993.4
20260905101600 16 342 1.6 6.4 0.00 0.13 0.00 66 993.2
20260905100105 17 335 0.0 9.7 0.00 0.13 0.00 65 993.1
20260905100002 17 360 0.0 3.2 0.00 0.13 0.00 64 993.1
20260905094600 16 22 0.0 1.6 0.00 0.23 0.00 69 993.0
20260905093100 16 323 0.0 3.2 0.00 0.23 0.00 68 992.9
20260905091604 16 330 0.0 3.2 0.00 0.23 0.00 69 992.9
20260905084600 15 313 0.0 1.6 0.00 0.23 0.00 84 992.8
20260905083100 13 313 0.0 0.0 0.00 0.23 0.00 91 992.7
20260905081600 13 298 0.0 0.0 0.00 0.23 0.00 95 992.8
20260905080100 12 289 0.0 0.0 0.00 0.23 0.00 97 992.7
20260905080002 12 289 0.0 0.0 0.00 0.23 0.00 97 992.7
20260905074600 10 289 0.0 0.0 0.00 0.23 0.00 97 992.7
20260905073103 9 289 0.0 0.0 0.00 0.23 0.00 96 992.6
20260905071606 8 289 0.0 0.0 0.00 0.23 0.00 96 992.5
20260905070100 8 289 0.0 0.0 0.00 0.23 0.00 97 992.4
20260905070002 8 289 0.0 0.0 0.00 0.23 0.00 97 992.4
20260905064600 7 289 0.0 0.0 0.00 0.23 0.00 96 992.4